Hourly Data Report for October 28, 2014

All times are specified in Local Standard Time (LST). Add 1 hour to adjust for Daylight Saving Time where and when it is observed.

ST LEONARD CS
NEW BRUNSWICK

47°09'28.050" N
67°49'55.014" W
245.00 m
810I001
71019
WIY

Download Data

Hourly Data (October 2014)
Hourly Data Report for October 28, 2014
Temp Definition
°C
Dew Point Temp Definition
°C
Rel Hum Definition
%
Wind Dir Definition
10's deg

Wind Spd Definition
km/h
Visibility Definition
km
Stn Press Definition
kPa
Hmdx Definition


Wind Chill Definition


Weather Definition


TIME
00:00 4.3 1.2 80 33 4   98.18     LegendNANA
01:00 4.2 1.0 80 33 3   98.24     LegendNANA
02:00 4.1 1.0 80 33 3   98.34     LegendNANA
03:00 4.0 1.0 80 32 3   98.43     LegendNANA
04:00 3.9 1.0 82 32 2   98.52     LegendNANA
05:00 3.8 0.8 81 33 3   98.58     LegendNANA
06:00 3.6 0.9 83 0 1   98.65     LegendNANA
07:00 3.5 1.1 85 31 1   98.70     LegendNANA
08:00 3.7 1.1 83 0 1   98.77     LegendNANA
09:00 4.0 1.2 82 33 2   98.78     LegendNANA
10:00 4.5 1.3 80 1 2   98.81     LegendNANA
11:00 4.9 1.3 78   0   98.84     LegendNANA
12:00 5.1 1.5 77 0 1   98.80     LegendNANA
13:00 6.4 2.4 76 8 2   98.78     LegendNANA
14:00 7.8 2.5 69 18 5   98.76     LegendNANA
15:00 7.8 2.7 70 17 2   98.77     LegendNANA
16:00 7.9 2.7 70 13 4   98.72     LegendNANA
17:00 6.6 2.7 76 14 3   98.71     LegendNANA
18:00 4.9 2.3 84 13 3   98.67     LegendNANA
19:00 4.5 2.1 85 16 3   98.70     LegendNANA
20:00 4.8 2.4 85 14 3   98.65     LegendNANA
21:00 5.2 2.6 84 13 4   98.61     LegendNANA
22:00 5.3 2.8 84 13 3   98.59     LegendNANA
23:00 5.4 3.6 88 14 2   98.55     LegendNANA

Notes on Data Quality.

Legend

  • E = Estimated
  • M = Missing
  • NA = Not Available
  • ‡ = Partner data that is not subject to review by the National Climate Archives
Date modified: